Weather History for Madrid Cuatro Vientos, Spain

Change the Weather History Date:

Tuesday, September 24, 2013

  Actual Average Record
Temperature  
Mean Temperature 74 °F -  
Max Temperature 87 °F 74 °F 87 °F (2004)
Min Temperature 60 °F 54 °F 32 °F (2007)
Cooling Degree Days 8    
Growing Degree Days 24 (Base 50)    
Moisture  
Dew Point 48 °F    
Average Humidity 37    
Maximum Humidity 63    
Minimum Humidity 22    
Precipitation  
Precipitation 0.00 in - - ()
Sea Level Pressure  
Sea Level Pressure 30.04 in    
Wind  
Wind Speed 2 mph ()    
Max Wind Speed 7 mph    
Max Gust Speed -    
Visibility 6.2 miles    
Events      
Averages and records for this station are not official NWS values.
T = Trace of Precipitation, MM = Missing Value Source: Averaged Metar Reports

Daily Weather History Graph

Daily Weather History Graph

Search for Another Location

Airport:

Trip Planner

Search our weather history database for the weather conditions in past years. The results will help you decide how hot, cold, wet, or windy it might be!

Date:

Astronomy

Sep. 24, 2013 Rise Set
Actual Time 8:04 AM CEST 8:08 PM CEST
Civil Twilight 7:37 AM CEST 8:36 PM CEST
Nautical Twilight 7:05 AM CEST 9:07 PM CEST
Astronomical Twilight 6:33 AM CEST 9:39 PM CEST
Moon 11:14 PM CEST (9/24) 1:07 PM CEST (9/24)
Length of Visible Light 12h 58m
Length of Day
12h 04m
Waning Gibbous, 75% of the Moon is Illuminated
Sep 24
Waning Gibbous
Sep 27
Last Quarter
Oct 5
New
Oct 12
First Quarter
Oct 19
Full

Hourly Weather History & Observations

Time (CEST) Temp. Dew Point Humidity Pressure Visibility Wind Dir Wind Speed Gust Speed Precip Events Conditions
7:00 AM 62.6 °F 46.4 °F 55% 30.06 in - Calm Calm - N/A   Clear
7:30 AM 64.4 °F 48.2 °F 56% 30.06 in - Variable 1.2 mph - N/A   Clear
8:00 AM 60.8 °F 48.2 °F 63% 30.06 in - Calm Calm - N/A   Clear
8:30 AM 60.8 °F 48.2 °F 63% 30.06 in - Calm Calm - N/A   Clear
9:00 AM 66.2 °F 50.0 °F 56% 30.09 in - Variable 1.2 mph - N/A   Clear
9:30 AM 68.0 °F 50.0 °F 52% 30.09 in - Variable 2.3 mph - N/A   Clear
10:00 AM 69.8 °F 50.0 °F 49% 30.09 in - Variable 1.2 mph - N/A   Clear
10:30 AM 71.6 °F 51.8 °F 50% 30.09 in - Variable 1.2 mph - N/A   Clear
11:00 AM 75.2 °F 51.8 °F 44% 30.09 in - Variable 1.2 mph - N/A   Clear
11:30 AM 77.0 °F 50.0 °F 39% 30.09 in - Calm Calm - N/A   Clear
12:00 PM 78.8 °F 50.0 °F 36% 30.09 in - Calm Calm - N/A   Clear
12:30 PM 80.6 °F 50.0 °F 34% 30.09 in 6.2 mi Variable 1.2 mph - N/A   Partly Cloudy
1:00 PM 82.4 °F 48.2 °F 30% 30.09 in 6.2 mi Variable 1.2 mph - N/A   Partly Cloudy
1:30 PM 84.2 °F 48.2 °F 29% 30.06 in - Variable 2.3 mph - N/A   Clear
2:00 PM 84.2 °F 48.2 °F 29% 30.06 in - Variable 3.5 mph - N/A   Clear
2:30 PM 86.0 °F 46.4 °F 25% 30.06 in - Variable 4.6 mph - N/A   Clear
3:00 PM 87.8 °F 46.4 °F 24% 30.04 in - Variable 2.3 mph - N/A   Clear
3:30 PM 87.8 °F 44.6 °F 22% 30.04 in - Variable 4.6 mph - N/A   Clear
4:00 PM 87.8 °F 44.6 °F 22% 30.01 in 6.2 mi SW 6.9 mph - N/A   Partly Cloudy
4:30 PM 87.8 °F 44.6 °F 22% 30.01 in 6.2 mi SSW 5.8 mph - N/A   Partly Cloudy
5:00 PM 87.8 °F 44.6 °F 22% 30.01 in 6.2 mi SSW 6.9 mph - N/A   Partly Cloudy
5:30 PM 86.0 °F 46.4 °F 25% 30.01 in 6.2 mi WSW 6.9 mph - N/A   Partly Cloudy
6:00 PM 87.8 °F 44.6 °F 22% 29.98 in 6.2 mi SSW 5.8 mph - N/A   Partly Cloudy
6:30 PM 86.0 °F 46.4 °F 25% 29.98 in 6.2 mi SSW 5.8 mph - N/A   Partly Cloudy
7:00 PM 84.2 °F 44.6 °F 25% 29.98 in 6.2 mi South 4.6 mph - N/A   Partly Cloudy
7:30 PM 84.2 °F 46.4 °F 27% 29.98 in 6.2 mi South 5.8 mph - N/A   Partly Cloudy
8:00 PM 82.4 °F 48.2 °F 30% 29.98 in - Variable 2.3 mph - N/A   Clear
8:30 PM 77.0 °F 46.4 °F 34% 29.98 in - Variable 1.2 mph - N/A   Clear
9:00 PM 77.0 °F 51.8 °F 41% 29.98 in - West 4.6 mph - N/A   Clear
9:30 PM 73.4 °F 51.8 °F 47% 30.01 in - West 4.6 mph - N/A   Clear
10:00 PM 71.6 °F 51.8 °F 50% 30.01 in - WSW 3.5 mph - N/A   Clear